Погода в Рыбинске

Хотите узнать прогноз погоды в Рыбинске? Тогда Вам сюда: Погода в Рыбинске

Поиск расширенной информации на нашем сайте:

Полезная информация:

Новости сайта



02.01.2020
Опубликован Долгосрочный прогноз погоды по городам России и ближнего зарубежья на январь 2020 года.
Карты: Прогноз на январь и февраль 2020 года, Сравнение прогнозируемой аномалии приземной температуры воздуха на январь 2020 года по разным моделям.




Погода в Рыбинске - сегодня

Время (UTC), дата Ветер
(°,м/с) 
Видим.   Явления Облачность Т
(°С)
Тd
(°С)
f(%) Тe
(°С)
Pmin
(гПа)
dP
(гПа)
Po
(мм)
O2
(г/м3)
Тmin Tmax R s Состояние
почвы
12 02.07.20 250 (З) 10 км    6/3 600 м верхняя 
[Cu med, cong|Ci fib]
+23.4 +10.8 45 +26  1008.6  0.1  747  275           
15 02.07.20 260 (З) 10 км    8/4 600 м верхняя 
[Cu med, cong|Ci fib]
+23.2 +12.2 50 +27  1009.2  0.6  748  275    +23.8       
18 02.07.20 170 (Ю) 10 км    6/6 300 м 
[Cu med, cong]
+20.3 +14.4 69 +28  1009.5  0.2  748  278           
21 02.07.20 210 (ЮЗ) 10 км    4/0 средняя 
[Ac trans]
+16.4 +13.7 84 +25  1010.4  0.6  748  282           
00 03.07.20 тихо ()   10 км    4/4 300 м 
[Cu med, cong]
+14.9 +13.8 93 +22  1010.5  0.1  748  283           
03 03.07.20 160 (Ю) 10 км    3/3 600 м 
[Cu med, cong]
+17.1 +15.8 92 +29  1010.4  0.1  749  280  +14.3        влажная 
06 03.07.20 230 (ЮЗ) 10 км    6/6 600 м 
[Cu med, cong]
+22 +16.9 73 +34  1010.6  0.4  749  275           
09 03.07.20 240 (ЮЗ) 10 км    8/5 600 м верхняя 
[Cu med, cong|Ci fib]
+25.3 +15.9 56 +36  1011.1  0.7  749  273           
12 03.07.20 240 (ЮЗ) 10 км    8/6 600 м верхняя 
[Cu med, cong|Ci fib]
+26.7 +14.8 48 +35  1010.7  -0.3  749  272           
15 03.07.20 270 (З) 10 км    10/3 600 м верхняя 
[Cu med, cong|Ci sp]
+24.7 +14.5 53 +33  1011.2  0.3  749  274    +26.8       
18 03.07.20 тихо ()   10 км    10/10 300 м 
[Sc diur, vesp]
+21.6 +15.2 67 +31  1012.1  0.8  750  277           
21 03.07.20 тихо ()   10 км  {ливн. осадки}  8/8 300 м 
[Sc]
+19.3 +16 81 +30  1011.9  -0.3  750  279           
00 04.07.20 170 (Ю) 10 км  {ливн. осадки}  10/10 300 м 
[Sc]
+18.3 +16.6 90 +32  1011.8  -0.1  750  279           
03 04.07.20 240 (ЮЗ) 10 км    10/10 300 м 
[Sc]
+18.9 +17.4 91 +33  1011.9  0.1  750  279  +17.9    0.0    влажная 
06 04.07.20 220 (ЮЗ) 10 км    10/10 300 м 
[Sc]
+20.8 +18.2 85 +36  1012.1  0.3  750  277           
09 04.07.20 210 (ЮЗ) 10 км    10/10 600 м 
[Cu med, cong]
+22.6 +17.7 74 +36  1011.8  -0.2  750  275           
12 04.07.20 300 (СЗ) 4000 м  слаб. ливневой дождь  10/10 300 м кучево-дожд. 
[Cb cap]
+18.8 +17.3 91 +33  1011.7  -0.3  750  279           
15 04.07.20 290 (З) 10 км  {ливн. осадки}  10/6 600 м верхняя 
[Cu med, cong|Ci fib]
+22.1 +18.3 79 +37  1010.7  -0.8  749  275    +24.7     
18 04.07.20 тихо ()   10 км  {ливн. осадки}  8/8 2000 м средняя 
[Ac trans]
+20.3 +17.7 85 +34  1010.6  -0.2  749  277           
21 04.07.20 тихо ()   4000 м  дымка  6/0 верхняя 
[Ci sp]
+17 +16 94 +28  1010.7  -0.1  749  281           
00 05.07.20 тихо ()   4000 м  дымка  3/0 верхняя 
[Ci sp]
+15.1 +14.3 95 +23  1011  0.3  749  283           
03 05.07.20 тихо ()   10 км  туман  н/о 
+17.5 +16.7 95 +29  1010.7  -0.2  749  280  +14.7        мокрая 
06 05.07.20 280 (З) 10 км  {туман}  3/0 верхняя 
[Ci fib]
+23.1 +16.1 65 +34  1010.7  0.2  749  275           
09 05.07.20 230 (ЮЗ) 10 км    8/8 300 м 
[Cu med, cong]
+25.1 +12.9 47 +30  1010  -0.6  749  274           
12 05.07.20 250 (З) 10 км    6/6 300 м 
[Cu med, cong]
+26.8 +12.8 42 +32  1008.6  -1.3  748  272           
Время (UTC), дата Ветер
(°,м/с) 
Видим.   Явления Облачность Т
(°С)
Тd
(°С)
f(%) Тe
(°С)
Pmin
(гПа)
dP
(гПа)
Po
(мм)
O2
(г/м3)
Тmin Tmax R s Состояние
почвы

Для получения пояснительной информации подведите курсор к названию столбца.

ПОГОДА в Рыбинске - архив

Всё, что Вы хотите узнать о погоде в Рыбинске - удобно и подробно!

Выберите нужную дату (начиная с 1 января 2019* года) и нажмите кнопку "Найти".
Будут отображены архивные сводки погоды по пункту Рыбинск, начиная с указанной даты.


Отображать данные в формате CSV (для использования в таблицах Excel)


Внимание! Наш архив погоды предназначен исключительно для личного некоммерческого использования в познавательных целях. Если Вам необходимы официальные справки о состоянии погоды (для производственных, юридических, коммерческих и т.п. целей), обращайтесь в органы Росгидромета.

*Примечание: данная дата относится к архиву по метеостанциям СССР (Россия, СНГ, Балтия).
Архив по метеостанциям Зарубежной Европы и Азии (кроме Китая) хранится 10 дней, по другим регионам земного шара (Китай, Африка, Америка, Австралия, Океания) - 1 день.

Рыбинск - район местоположения метеостанции


Название, широта, долгота, высота метеостанции:
Рыбинск 58.1°ш. 38.7°д. 105 м над ур. моря [Российская Федерация]

Дополнительная информация

В oтличие oт бoльшинства пoгoдных сайтoв мы публикуем пoдрoбную метеoинфoрмацию в детальнoм прoфессиoнальнoм фoрмате.

Характеристики температуры и влажнoсти вoздуха измеряются на высoте 2 м в тени вдали oт зданий и деревьев.
Скoрoсть ветра измеряется на высoте 10 м (на урoвне рoста челoвека скoрoсть ветра ниже в 1.5-2 раза). Если метеoстанция нахoдится в гoрoде или в лесу, тo скoрoсть ветра занижена на 2-4 м/с пo сравнению с oткрытым местoм. Скoрoсть ветра над акватoриями крупных рек и oзёр, а также на вершинах хoлмoв на 2-5 м/с выше, чем в oбычных услoвиях.
Атмoсфернoе давление в разных тoчках местнoсти мoжет значительнo oтличаться oт давления на метеoстанции, в зависимoсти oт услoвий рельефа (при пoдъёме на 10 м давление пoнижается примернo на 1 мм рт.ст.).